星链-5061 (STARLINK-5061 )

导读

STARLINK-5061是美国SpaceX公司星链(Starlink)项目中的一颗卫星,于2022年12月28日发射入轨,属于星链互联网卫星星座的组成部分,旨在为全球多地提供低延迟、高速率的宽带互联网服务,助力实现全球范围内的网络覆盖,是SpaceX大规模星座部署计划中的一员。

Basic Information
目录编号:
54847
目录名称:
STARLINK-5061
国际标识:
2022-177AD
轨道中心:
EARTH
卫星名称:
星链-5061
卫星全名:
星链-5061 (STARLINK-5061 )
卫星状态:
在轨 (已飞行1346 天)
发射日期:
2022-12-28 UTC
国别 :
美国 (US)
星等 :
--
Orbit Information
数据来源 国际轨道数据
星历时间: 2026-09-01T22:24:55+0800
2天前
查看轨道信息
半长轴: 6861.201km
偏心率: 0.0001649
轨道倾角: 43.003°
近地点辐角 264.516°
升交点赤经 196.836°
平近点角 95.551°
近地点: 481.932km
远地点: 484.196km
周期: 94.267分钟
每日圈数: 15.275751
Detailed Information
固有亮度:
5
最大亮度:
2.5
卫星平台:
Starlink v1.5
覆盖范围:
全球
运营商:
太空探索技术公司
运营商所在国:
美国
制造商(研发单位):
太空探索技术公司
制造商所在国:
美国
使用方式:
暂无
Satellite Introduction
星链(Starlink)计划是由太空探索技术公司(SpaceX)提出的一个巨型低轨卫星互联网星座项目,计划在2019年至2024年间在太空搭建由约1.2万颗卫星组成的“星链”网络,其中1584颗将部署在地球上空550千米处的近地轨道,并从2020年开始工作。该卫星仍在工作。
2D Orbit Map
3D Orbit Map
Orbit Altitude Analysis Chart
Orbit Inclination Analysis Chart
Orbit Comprehensive Analysis Chart
View Comprehensive Chart
Conjunction Data List
Event ID Objects TCA Miss Dist (km) Collision Risk Probability Collision Risk Index (CRI) Action
CDM_260904-020205-484706-453022
2026-09-04T
02:02:58+0000
0.365 km
远距离
3.731921E-4 高风险 0.86
CDM_260904-045505-484706-186922
OBJECT A (61869)
2026-09-04T
04:55:52+0000
0.736 km
远距离
6.93624E-5 中风险 0.72
CDM_260904-144205-484705-546521
2026-09-04T
14:42:43+0000
0.819 km
远距离
3.977211E-5 中风险 0.67
CDM_260905-064002-636605-484721
SIMSAT 2 (26366)
2026-09-05T
06:40:55+0000
1.253 km
极远距离
9.675035E-6 低风险 0.55
CDM_260903-055805-484705-870325
2026-09-03T
05:58:45+0000
1.376 km
极远距离
8.040085E-6 低风险 0.53
CDM_260904-130805-484705-546521
2026-09-04T
13:08:34+0000
1.658 km
极远距离
3.720455E-6 低风险 0.46
CDM_260904-224005-484706-315021
2026-09-04T
22:40:26+0000
1.997 km
极远距离
1.896285E-6 低风险 0.41
CDM_260904-025005-484706-453022
2026-09-04T
02:50:05+0000
2.470 km
极远距离
1.761937E-6 低风险 0.4